Temperature
18 18 18 18 18 18 18 18 18 18 18 18 18 18 18 18 18 18 17 18 17 17 17 17 17 17 17 17 17 17 16 16 16 16 16 16 16 16 16 16 16 16 16
18 18 18 18 18 18 18 18 17 17 18 18 18 18 17 18 17 17 17 17 17 17 17 17 17 17 17 17 17 17 16 16 16 16 16 16 16 16 16 16 16 16 16
18 18 18 18 18 18 18 18 17 17 18 18 18 18 18 17 17 17 17 17 17 17 17 17 17 17 17 17 17 17 17 16 16 16 16 16 16 16 16 16 16 16 16
18 18 18 18 18 18 18 18 17 18 18 18 18 18 18 17 17 17 17 17 17 17 17 17 17 17 17 17 17 17 16 16 16 16 16 16 16 16 16 16 16 16 16
18 18 18 18 18 18 18 18 18 18 17 17 18 18 18 18 17 17 17 17 17 17 17 17 17 17 17 17 17 17 16 16 16 16 16 16 16 16 16 16 16 16 15
18 18 18 18 18 18 17 17 17 17 17 17 18 18 18 18 17 17 17 17 17 17 17 16 16 16 17 17 17 17 17 16 16 16 16 16 16 16 16 16 16 16 16
18 18 18 18 18 18 17 17 17 17 17 17 18 18 18 17 17 17 17 17 17 17 16 16 16 16 16 17 17 17 16 16 16 16 16 16 16 16 16 16 16 16 15
18 18 18 18 17 17 17 17 17 17 17 17 17 18 18 18 17 17 17 17 17 17 16 16 16 16 16 16 16 16 16 16 16 16 16 16 16 16 16 16 16 16 15
18 18 17 17 17 17 17 17 17 17 17 17 17 18 18 18 18 17 17 17 17 16 16 16 16 16 16 16 16 16 16 16 16 16 16 16 16 16 16 16 15 15 15
18 18 18 18 17 17 17 17 17 17 17 17 17 17 17 18 17 17 17 17 16 16 16 16 16 16 16 16 16 16 16 16 16 16 16 16 15 15 15 15 15 15 15
18 17 17 17 17 17 17 17 17 17 17 17 17 17 17 17 17 17 17 16 16 16 16 16 16 16 15 15 15 15 15 15 15 15 15 15 15 15 15 15 15 15 15
18 17 17 17 17 17 17 17 17 17 17 17 17 17 17 17 17 17 17 16 16 16 15 15 15 15 15 15 15 15 15 15 15 15 15 15 15 15 14 14 14 14 14
18 17 17 17 17 17 17 17 17 17 17 17 17 17 17 17 17 17 16 16 16 15 15 15 15 15 15 15 15 15 15 15 14 14 14 14 14 14 14 14 14 14 14
18 17 17 17 17 17 17 17 17 17 17 17 17 17 17 16 16 16 16 16 16 15 15 15 14 14 14 14 14 14 14 14 14 14 14 14 14 14 13 13 13 13 13
17 17 17 17 17 17 17 17 17 17 17 17 17 16 16 16 16 16 16 16 16 15 15 14 14 14 14 14 14 13 13 13 13 13 13 13 13 13 13 13 13 13 13
17 17 17 17 17 17 17 17 16 16 16 17 16 16 16 16 16 16 16 15 15 15 15 14 14 13 13 13 13 13 13 13 13 13 13 13 13 12 12 12 12 12 12
17 17 17 17 17 17 17 17 16 16 16 16 16 16 16 16 16 16 15 15 15 15 15 14 13 13 13 12 12 12 12 12 12 12 12 12 12 12 12 12 12 12 12
17 17 17 17 17 17 16 16 16 16 16 16 16 16 15 15 15 15 15 15 15 14 14 14 13 12 12 12 12 12 12 12 11 11 11 11 11 11 11 11 11 11 11
17 17 17 17 16 16 16 16 16 16 15 15 15 15 15 15 15 15 14 14 14 14 14 14 13 12 12 12 11 11 11 11 11 11 11 11 11 11 11 11 10 10 10
17 17 17 16 16 16 16 16 15 15 15 15 15 15 14 14 14 14 14 14 14 13 13 13 13 12 12 11 11 11 11 11 11 10 10 10 10 10 10 10 10 10 10
17 17 17 16 16 16 16 15 15 15 15 15 14 14 14 14 14 14 14 13 13 13 13 13 12 12 12 11 11 11 11 11 10 10 10 10 10 10 10 9 9 9 9
17 17 17 16 16 16 16 15 15 14 14 14 14 14 14 13 13 13 13 13 13 13 13 13 12 12 11 11 11 11 11 11 10 10 10 10 9 9 9 9 9 9 9
16 16 16 16 16 15 15 15 15 14 14 14 14 13 13 13 13 12 13 13 13 12 12 12 12 12 11 11 11 11 10 10 10 10 10 10 9 9 9 9 9 9 8
16 16 16 16 15 15 15 15 15 14 14 14 13 13 13 13 12 12 12 12 12 12 12 11 11 11 11 11 10 10 10 10 10 10 9 10 9 9 9 8 8 8 8
16 16 15 15 15 15 15 14 14 14 13 13 13 13 12 12 12 12 12 12 12 11 11 11 11 11 11 10 10 10 10 10 10 10 9 9 9 9 9 8 8 8 8
16 15 15 14 14 14 14 14 14 13 13 13 13 12 12 12 12 12 11 11 11 11 11 10 10 10 10 10 10 10 10 10 10 10 9 9 9 9 9 9 8 8 8
Wind_Speed
2 3 3 2 2 2 3 2 2 2 1 1 1 1 1 1 2 3 6 9 9 8 8 8 8 8 9 9 9 10 10 10 11 11 12 12 12 12 12 11 11 11 11
2 1 2 2 1 1 2 1 2 1 1 1 1 1 1 1 2 3 4 7 9 8 7 7 8 8 8 9 9 10 11 11 11 11 12 12 12 12 12 12 12 12 12
2 1 1 2 2 2 2 1 1 0 1 1 1 1 1 1 2 2 2 3 6 9 8 7 7 7 8 9 10 11 11 11 11 11 12 13 13 13 13 13 13 13 13
1 1 1 1 2 2 2 2 1 0 0 1 1 0 1 2 2 3 3 3 3 4 8 9 7 7 7 7 9 10 11 12 12 12 12 13 13 13 14 14 14 14 14
0 1 0 1 2 2 1 1 1 1 1 0 1 1 1 2 2 2 2 3 3 3 4 8 7 6 5 5 6 7 8 10 12 12 13 13 14 15 15 15 15 15 15
1 1 1 1 2 1 1 1 1 1 1 1 1 0 1 1 2 2 3 3 3 4 4 4 5 6 6 5 5 5 6 7 9 11 13 13 14 15 15 15 15 15 15
1 2 2 0 2 1 1 2 2 2 2 1 1 1 1 1 1 2 2 2 3 3 3 2 2 2 3 5 4 5 5 6 7 8 10 12 12 13 14 14 15 16 16
2 2 1 2 1 1 1 1 2 2 2 2 2 2 2 2 1 1 2 2 2 2 2 2 1 1 1 1 2 3 3 4 5 6 7 8 9 9 9 11 12 13 14
1 2 1 2 1 2 1 2 3 4 3 3 3 2 2 1 1 1 1 1 1 1 1 2 1 1 1 1 1 2 2 1 1 2 3 3 4 6 7 8 10 10 11
2 2 2 2 2 2 1 3 2 3 4 4 3 3 3 2 2 1 1 1 2 1 1 1 2 2 2 2 3 5 4 3 2 2 1 1 2 2 3 4 5 7 8
2 2 2 2 2 2 2 2 2 3 3 4 3 2 2 2 3 2 2 0 1 1 1 1 2 3 3 3 4 6 7 5 4 4 4 2 2 2 2 1 2 3 4
1 1 1 1 1 2 1 2 2 3 3 3 4 3 2 2 2 2 3 2 1 1 1 1 2 3 4 5 7 10 9 8 7 6 6 6 6 5 4 3 2 1 0
1 0 1 1 1 1 1 1 2 3 3 3 3 3 2 3 3 2 2 2 1 0 1 1 2 3 4 5 7 11 11 11 10 10 9 9 10 10 9 7 6 5 5
1 0 0 0 1 1 1 1 1 2 2 2 3 2 2 2 2 2 2 2 1 0 1 2 3 4 5 6 9 9 10 12 11 11 10 10 10 10 11 10 8 7 6
1 1 1 0 0 1 1 2 1 2 2 2 2 1 2 1 2 1 1 2 2 2 1 2 2 3 5 7 8 9 10 13 12 11 11 11 11 11 11 12 12 12 11
1 1 1 1 0 0 1 1 1 1 1 1 2 2 2 2 1 1 1 1 1 1 1 2 3 3 5 7 9 9 11 14 14 12 12 12 13 13 13 13 13 13 12
2 2 2 1 1 1 1 1 2 2 3 3 3 3 3 3 2 2 1 1 1 1 3 3 3 5 6 5 6 8 8 9 11 13 13 13 13 14 14 13 13 13 13
3 3 2 2 2 2 2 2 2 3 3 3 4 4 4 3 4 3 3 3 3 3 4 5 3 4 4 4 5 5 6 8 9 13 13 13 13 13 13 13 13 13 12
4 3 3 3 3 3 3 3 3 4 4 5 5 5 5 5 4 4 4 4 4 4 4 4 4 4 3 3 4 4 5 5 7 10 11 12 11 12 12 12 11 11 11
4 4 4 4 3 3 3 3 4 5 5 5 6 6 5 5 5 4 4 4 4 4 4 4 4 4 3 3 3 3 3 3 3 6 7 8 10 10 10 10 9 9 10
6 6 5 5 4 4 4 4 4 5 5 6 6 6 8 9 10 7 5 5 4 3 3 3 3 3 3 3 2 2 3 3 3 2 3 4 5 5 6 7 7 7 7
6 6 5 5 5 5 7 6 3 4 5 5 6 6 6 7 9 10 11 9 7 4 3 2 2 3 2 2 2 1 2 1 2 1 1 2 2 3 4 5 6 5 5
6 6 6 6 6 7 7 6 4 4 5 5 5 5 5 6 5 6 7 7 8 7 5 2 3 2 2 1 1 2 1 0 1 1 1 1 1 2 3 6 7 4 3
6 6 6 6 7 7 6 5 3 5 6 6 6 6 6 5 6 4 5 6 6 7 5 4 4 3 3 2 0 1 2 2 2 2 0 0 1 1 2 5 6 4 3
7 6 6 6 6 6 5 3 1 5 6 7 6 7 5 6 6 4 4 6 6 6 10 11 9 8 7 5 2 0 1 1 1 1 1 2 1 1 1 2 5 6 5
7 7 6 6 6 6 5 3 2 4 5 5 6 7 8 7 6 5 4 5 5 5 5 6 6 6 5 5 3 2 1 1 1 0 1 2 1 2 2 1 1 3 4
Wind_Direction
101 98 93 92 98 100 131 122 98 92 104 135 154 139 149 149 149 149 140 158 172 178 182 184 190 192 194 200 203 207 211 212 208 208 209 208 208 208 210 210 210 211 212
82 98 142 122 103 95 66 63 92 95 94 105 131 133 175 168 169 174 160 161 171 178 182 187 187 190 195 203 208 211 215 217 217 216 214 213 214 214 215 215 214 214 216
102 163 133 159 133 131 135 150 92 147 183 169 148 159 179 184 178 184 182 180 175 178 185 189 190 198 207 216 217 217 217 219 220 219 219 218 218 218 219 220 219 218 219
153 223 171 153 148 180 174 162 193 195 210 192 151 231 163 152 188 186 182 184 188 182 183 188 196 204 211 219 224 222 220 218 220 220 223 224 224 223 223 223 223 224 224
176 241 212 108 203 201 215 225 140 202 212 215 180 172 190 187 193 194 191 184 183 195 189 168 186 200 208 218 224 226 222 222 225 224 225 227 227 227 227 227 227 227 227
239 273 220 209 254 227 225 248 238 230 240 222 255 75 237 193 194 189 208 190 184 191 191 175 180 189 197 213 223 231 239 233 233 232 231 230 229 228 228 229 228 227 228
260 264 288 227 264 257 262 247 243 224 235 220 230 221 190 175 160 197 211 202 186 181 175 171 197 199 181 189 210 235 247 248 245 242 238 234 233 232 230 231 232 232 231
277 250 282 278 243 236 229 252 253 260 247 230 245 235 203 155 167 160 188 196 199 159 156 155 157 173 276 167 148 197 240 253 259 253 242 233 230 232 232 232 234 232 230
291 309 295 294 284 257 234 255 256 256 260 258 261 268 264 215 160 142 190 163 139 113 107 84 105 115 177 65 69 145 190 246 276 262 242 232 226 229 231 235 234 231 228
283 284 272 264 267 268 250 254 246 269 265 262 253 267 281 287 254 197 176 116 111 99 69 57 78 82 78 70 63 60 95 104 89 64 80 148 155 181 209 218 227 228 229
274 283 266 265 262 269 280 289 291 272 271 276 275 267 266 259 257 248 240 234 82 61 88 81 78 80 78 68 68 71 85 90 90 76 74 93 122 136 160 193 213 224 231
240 271 264 277 271 283 278 270 275 270 285 294 292 284 275 274 264 252 242 210 134 54 66 61 73 74 74 78 76 81 84 81 79 77 73 74 75 75 73 70 68 49 183
239 247 302 263 275 279 281 287 276 299 291 284 276 280 285 282 290 278 244 214 236 269 104 84 69 76 78 84 85 89 81 78 76 76 77 76 73 70 68 68 70 71 69
250 54 270 230 290 304 307 311 294 288 296 291 293 298 297 293 284 271 231 190 182 197 139 111 79 64 66 75 83 90 81 81 78 77 77 77 75 71 68 64 64 68 68
187 164 181 179 310 335 334 307 317 319 322 314 312 299 299 317 307 280 224 209 205 193 145 115 91 65 74 76 83 83 79 79 81 80 81 82 79 77 73 69 67 66 65
153 157 165 156 130 61 22 345 334 3 3 2 336 347 339 339 340 323 265 222 245 205 127 84 83 89 78 84 86 86 85 86 81 81 81 82 79 77 75 73 70 67 64
153 153 145 123 105 89 58 44 27 28 28 26 16 24 20 6 7 8 40 51 67 116 122 98 85 90 87 89 93 93 91 88 84 85 83 83 82 78 74 71 69 67 66
141 132 132 126 115 98 80 66 58 49 43 40 40 42 37 42 45 38 47 61 69 90 124 121 116 107 99 104 105 104 98 93 90 93 90 87 84 82 79 76 73 71 68
133 126 116 110 102 94 86 76 72 66 57 48 45 48 46 49 52 57 60 68 79 93 109 125 123 113 114 111 112 103 95 90 98 105 104 99 93 90 85 80 75 72 69
128 122 114 108 99 91 86 83 79 76 70 59 52 52 50 50 51 61 73 79 87 99 113 122 123 124 122 127 132 124 111 100 92 95 95 106 110 105 96 87 80 75 72
123 119 115 109 102 93 75 78 87 86 85 80 69 65 62 61 52 46 55 67 80 94 111 121 122 126 126 133 135 124 114 116 108 109 127 127 128 116 111 104 90 81 78
121 118 114 109 97 83 65 51 60 93 86 85 82 81 84 76 75 74 68 62 56 72 91 108 118 118 117 122 107 130 128 137 129 134 156 125 123 101 98 89 88 88 84
124 119 114 108 100 86 74 63 49 85 88 79 78 74 71 72 71 77 87 95 74 63 58 70 97 92 111 107 146 146 144 160 82 127 171 121 113 97 100 95 107 106 98
128 123 121 118 113 102 89 79 67 94 84 79 76 75 75 71 61 64 79 77 72 66 61 66 78 66 73 75 149 173 155 137 132 111 39 293 144 126 115 117 132 137 135
136 136 131 126 121 114 98 89 58 110 97 84 77 70 71 78 50 27 87 88 84 81 79 79 81 83 82 75 33 160 163 193 141 121 11 302 281 262 206 162 153 164 169
140 137 127 124 122 116 98 73 319 120 108 103 96 89 70 63 46 20 84 88 87 82 84 92 96 105 106 99 62 9 335 304 332 96 48 308 290 282 265 204 184 183 195
Height
1556 1557 1556 1557 1559 1559 1559 1559 1559 1559 1559 1560 1560 1561 1561 1562 1562 1562 1562 1561 1561 1562 1563 1563 1564 1565 1565 1566 1567 1567 1568 1569 1570 1571 1572 1573 1574 1574 1575 1576 1577 1578 1579
1556 1557 1557 1557 1558 1558 1559 1559 1559 1559 1559 1560 1560 1560 1560 1561 1561 1562 1562 1561 1561 1562 1562 1563 1563 1564 1564 1564 1565 1566 1566 1567 1568 1569 1570 1571 1572 1573 1573 1574 1575 1576 1577
1556 1557 1557 1557 1558 1558 1558 1558 1559 1559 1559 1559 1559 1559 1559 1560 1560 1560 1561 1561 1561 1561 1561 1562 1562 1562 1563 1563 1564 1564 1565 1565 1566 1567 1568 1569 1569 1570 1571 1572 1573 1574 1575
1557 1557 1557 1557 1557 1558 1558 1558 1559 1559 1559 1559 1558 1558 1558 1558 1559 1559 1560 1560 1560 1561 1560 1560 1561 1561 1561 1562 1562 1562 1563 1563 1564 1564 1565 1566 1567 1567 1568 1569 1570 1571 1572
1556 1556 1557 1556 1556 1557 1557 1558 1558 1558 1558 1558 1558 1557 1557 1558 1558 1558 1559 1559 1559 1559 1560 1559 1559 1559 1560 1560 1560 1560 1561 1561 1562 1562 1562 1563 1563 1564 1565 1566 1567 1568 1569
1556 1556 1556 1555 1556 1556 1556 1557 1557 1557 1557 1557 1557 1557 1557 1557 1557 1557 1557 1558 1558 1558 1558 1558 1558 1558 1558 1558 1558 1558 1559 1559 1559 1559 1560 1560 1560 1561 1562 1563 1564 1565 1565
1555 1555 1555 1554 1555 1555 1555 1556 1556 1556 1557 1556 1556 1556 1556 1556 1556 1556 1556 1556 1557 1557 1557 1556 1557 1557 1557 1556 1556 1556 1557 1557 1557 1557 1557 1557 1558 1558 1559 1560 1560 1561 1561
1554 1555 1554 1554 1554 1554 1554 1555 1555 1555 1556 1556 1556 1555 1555 1556 1554 1555 1555 1555 1555 1555 1555 1555 1555 1555 1555 1555 1555 1555 1554 1555 1554 1554 1554 1554 1555 1555 1555 1556 1557 1557 1557
1554 1553 1553 1553 1553 1553 1554 1554 1554 1554 1555 1555 1555 1555 1554 1553 1554 1554 1554 1554 1553 1553 1554 1554 1553 1553 1553 1553 1553 1553 1553 1552 1552 1552 1552 1551 1552 1552 1552 1552 1553 1553 1554
1553 1553 1553 1552 1552 1553 1553 1553 1554 1553 1553 1553 1553 1552 1553 1552 1552 1552 1553 1552 1552 1552 1552 1552 1552 1552 1552 1552 1551 1551 1551 1550 1550 1549 1549 1549 1549 1549 1549 1549 1549 1550 1550
1553 1553 1552 1552 1551 1552 1552 1552 1552 1552 1552 1552 1552 1551 1551 1550 1551 1551 1551 1551 1551 1551 1550 1550 1550 1550 1550 1550 1550 1549 1549 1548 1548 1547 1547 1547 1547 1547 1546 1546 1547 1546 1546
1552 1552 1551 1551 1551 1551 1550 1550 1550 1550 1550 1550 1550 1550 1549 1549 1549 1548 1548 1548 1548 1549 1549 1549 1549 1549 1549 1549 1549 1548 1548 1547 1547 1546 1546 1545 1545 1545 1544 1544 1544 1544 1544
1551 1551 1551 1550 1550 1549 1549 1549 1549 1549 1548 1548 1548 1548 1548 1547 1547 1547 1546 1546 1546 1548 1548 1548 1548 1548 1549 1548 1548 1547 1547 1546 1546 1545 1545 1544 1544 1543 1542 1542 1542 1541 1541
1550 1550 1549 1549 1549 1549 1549 1548 1548 1547 1547 1547 1547 1546 1546 1545 1545 1544 1544 1544 1545 1546 1546 1547 1547 1548 1548 1548 1547 1547 1546 1546 1545 1544 1544 1543 1543 1542 1541 1540 1540 1540 1540
1548 1548 1548 1548 1548 1548 1547 1547 1547 1546 1546 1546 1546 1545 1544 1544 1543 1542 1542 1543 1543 1544 1545 1545 1546 1547 1547 1547 1547 1546 1546 1545 1544 1544 1543 1543 1542 1541 1540 1540 1539 1538 1538
1546 1547 1547 1547 1547 1547 1546 1546 1546 1546 1545 1545 1544 1544 1543 1543 1542 1541 1541 1541 1542 1542 1543 1544 1545 1545 1546 1547 1546 1546 1545 1545 1544 1544 1543 1542 1542 1541 1540 1539 1539 1538 1537
1545 1545 1546 1546 1546 1546 1546 1545 1546 1545 1545 1544 1544 1543 1542 1542 1541 1541 1540 1540 1540 1541 1541 1543 1544 1544 1545 1545 1545 1546 1546 1545 1545 1544 1544 1543 1542 1541 1540 1539 1538 1538 1537
1544 1544 1545 1545 1545 1545 1545 1545 1545 1545 1544 1544 1543 1543 1542 1542 1540 1540 1540 1540 1540 1540 1541 1542 1543 1544 1544 1545 1545 1546 1546 1546 1546 1545 1544 1544 1543 1542 1541 1540 1539 1538 1537
1543 1544 1544 1544 1545 1545 1545 1545 1544 1544 1544 1544 1544 1543 1542 1542 1541 1540 1540 1540 1540 1541 1542 1542 1543 1544 1545 1545 1546 1546 1547 1546 1547 1546 1545 1544 1544 1543 1542 1541 1540 1539 1538
1543 1543 1544 1544 1544 1545 1545 1545 1545 1544 1544 1544 1544 1543 1543 1542 1542 1541 1541 1541 1541 1542 1542 1543 1543 1544 1544 1545 1546 1546 1547 1547 1547 1547 1546 1545 1544 1544 1543 1542 1541 1540 1539
1543 1543 1544 1544 1544 1545 1545 1545 1545 1545 1544 1544 1544 1544 1543 1543 1542 1542 1542 1542 1542 1542 1543 1543 1544 1544 1545 1545 1546 1546 1546 1547 1547 1547 1547 1546 1546 1545 1544 1542 1541 1540 1539
1542 1543 1543 1544 1545 1545 1545 1545 1545 1545 1545 1545 1545 1545 1544 1544 1543 1543 1542 1542 1542 1542 1543 1543 1544 1544 1545 1545 1545 1546 1546 1547 1546 1547 1547 1547 1546 1546 1545 1543 1542 1540 1539
1542 1543 1544 1544 1544 1545 1545 1546 1546 1546 1546 1545 1545 1545 1546 1545 1544 1544 1544 1543 1543 1543 1543 1544 1544 1544 1544 1545 1545 1545 1545 1546 1546 1546 1546 1546 1546 1545 1544 1543 1541 1540 1539
1542 1543 1543 1544 1544 1544 1545 1546 1546 1546 1546 1546 1546 1545 1545 1545 1545 1545 1545 1544 1544 1543 1543 1544 1544 1544 1544 1544 1544 1545 1545 1545 1545 1545 1545 1546 1545 1545 1544 1542 1541 1540 1538
1541 1543 1543 1544 1544 1544 1545 1546 1546 1547 1547 1546 1546 1546 1546 1545 1545 1545 1545 1545 1544 1544 1544 1543 1543 1543 1543 1543 1544 1545 1545 1546 1545 1545 1545 1545 1545 1544 1543 1542 1540 1539 1537
1541 1543 1543 1544 1545 1545 1545 1546 1547 1548 1547 1547 1547 1547 1546 1546 1546 1546 1546 1545 1545 1545 1545 1544 1544 1544 1544 1543 1543 1544 1545 1545 1545 1545 1544 1544 1543 1543 1542 1541 1540 1538 1537